K5RG-3 Weather Reports


time (UTC)temp
C
wind
direction
speed
KPH
gust
KPH
rain 1hr
cm
rain 24hr
cm
rain mn
cm
humidity
%
barometer
mb
20260901113013 27 27 1.6 4.8 0.00 0.10 0.00 88 1012.7
20260901111504 27 323 0.0 0.0 0.00 0.10 0.00 89 1012.5
20260901110004 27 309 3.2 8.0 0.00 0.10 0.00 89 1012.4
20260901104501 27 334 3.2 8.0 0.00 0.10 0.00 89 1012.3
20260901103105 27 317 0.0 3.2 0.00 0.10 0.00 89 1012.4
20260901101615 27 333 1.6 4.8 0.00 0.10 0.00 89 1012.4
20260901100114 27 331 1.6 6.4 0.00 0.10 0.00 88 1012.3
20260901094558 27 326 3.2 4.8 0.00 0.10 0.00 88 1012.5
20260901093056 27 327 3.2 6.4 0.00 0.10 0.00 89 1012.5
20260901091556 27 301 1.6 6.4 0.00 0.10 0.00 89 1012.6
20260901090101 27 298 1.6 4.8 0.00 0.10 0.00 89 1012.7
20260901084559 27 279 4.8 6.4 0.00 0.10 0.00 89 1012.7
20260901083054 27 273 1.6 4.8 0.00 0.10 0.00 89 1012.7
20260901081557 27 275 0.0 0.0 0.00 0.10 0.00 89 1012.6
20260901080053 27 122 0.0 0.0 0.00 0.10 0.00 88 1012.7
20260901074550 27 122 0.0 0.0 0.00 0.10 0.00 88 1012.7
20260901073151 27 122 0.0 0.0 0.00 0.10 0.00 88 1012.7
20260901071546 27 122 0.0 0.0 0.00 0.10 0.00 87 1012.8
20260901070057 27 122 0.0 0.0 0.00 0.10 0.00 87 1013.0
20260901064545 27 122 0.0 0.0 0.00 0.10 0.00 86 1012.9
20260901063047 27 122 0.0 0.0 0.00 0.10 0.00 86 1012.8
20260901061542 27 122 0.0 0.0 0.00 0.10 0.00 86 1012.9
20260901060045 27 122 0.0 0.0 0.00 0.10 0.00 86 1013.2
20260901054541 27 122 0.0 0.0 0.00 0.10 0.00 86 1013.1
20260901053102 27 122 0.0 3.2 0.00 0.10 0.00 85 1013.0
20260901051538 27 122 0.0 1.6 0.00 0.10 0.00 85 1013.0
20260901050037 27 122 0.0 1.6 0.00 0.10 0.00 86 1013.0
20260901044554 27 122 0.0 0.0 0.00 0.10 0.10 85 1012.8
20260901043040 27 122 0.0 0.0 0.00 0.10 0.10 85 1013.0
20260901041536 28 122 0.0 0.0 0.00 0.10 0.10 84 1013.0
20260901040036 28 122 0.0 0.0 0.00 0.10 0.10 84 1012.9
20260901034541 28 122 0.0 1.6 0.00 0.10 0.10 84 1012.9
20260901033041 28 122 0.0 0.0 0.00 0.10 0.10 84 1012.9
20260901031544 28 122 0.0 0.0 0.00 0.10 0.10 84 1012.9
20260901030034 28 122 0.0 0.0 0.00 0.10 0.10 83 1012.7
20260901024536 29 122 0.0 0.0 0.00 0.10 0.10 82 1012.5
20260901023039 29 201 0.0 0.0 0.00 0.10 0.10 82 1012.2
20260901021538 29 201 0.0 0.0 0.00 0.10 0.10 82 1012.1
20260901020054 29 201 0.0 0.0 0.00 0.10 0.10 82 1011.9
20260901014531 29 201 0.0 0.0 0.00 0.10 0.10 81 1011.7
20260901013030 30 201 0.0 0.0 0.00 0.10 0.10 80 1011.7
20260901011537 30 201 0.0 0.0 0.00 0.10 0.10 79 1011.8
20260901010029 30 201 0.0 0.0 0.00 0.10 0.10 77 1011.6
20260901004528 30 201 0.0 0.0 0.00 0.10 0.10 77 1011.7
20260901003030 30 182 0.0 1.6 0.00 0.10 0.10 76 1011.8
20260901001528 31 209 0.0 3.2 0.00 0.10 0.10 75 1011.8
20260901000026 31 226 0.0 3.2 0.00 0.10 0.10 75 1011.7
20260831234526 31 212 0.0 1.6 0.00 0.10 0.10 74 1011.7
20260831233035 31 169 0.0 0.0 0.00 0.10 0.10 73 1011.8
20260831231526 31 182 0.0 1.6 0.00 0.10 0.10 73 1011.8
20260831230023 31 182 0.0 1.6 0.00 0.10 0.10 73 1011.9
20260831224522 31 159 0.0 1.6 0.00 0.10 0.10 74 1012.0
20260831223022 31 138 0.0 1.6 0.00 0.10 0.10 76 1012.0
20260831221520 30 166 0.0 1.6 0.00 0.10 0.10 79 1012.0
20260831220023 29 205 0.0 1.6 0.00 0.10 0.10 82 1012.2
20260831214519 28 218 0.0 3.2 0.00 0.10 0.10 84 1012.4
20260831213028 28 200 0.0 6.4 0.00 0.10 0.10 86 1012.6
20260831211516 27 252 0.0 3.2 0.08 0.10 0.10 87 1012.8
20260831210020 27 231 0.0 3.2 0.10 0.10 0.10 86 1012.9
20260831204515 27 238 6.4 16.1 0.10 0.10 0.10 86 1013.4
20260831203013 28 266 3.2 9.7 0.10 0.10 0.10 82 1013.6
20260831201514 30 98 6.4 22.5 0.00 0.00 0.00 76 1013.6
20260831200021 32 160 1.6 8.0 0.00 0.00 0.00 73 1013.3
20260831194524 32 88 3.2 9.7 0.00 0.00 0.00 68 1013.5
20260831193012 32 300 4.8 9.7 0.00 0.00 0.00 71 1013.5
20260831191512 32 10 1.6 17.7 0.00 0.00 0.00 72 1013.7
20260831190010 33 15 1.6 9.7 0.00 0.00 0.00 65 1013.9
20260831184513 33 54 1.6 8.0 0.00 0.00 0.00 66 1013.9
20260831183107 33 335 0.0 6.4 0.00 0.00 0.00 67 1014.0
20260831181557 32 134 1.6 6.4 0.00 0.00 0.00 68 1014.2
20260831180053 32 112 1.6 9.7 0.00 0.00 0.00 71 1014.5
20260831174602 32 95 1.6 11.3 0.00 0.00 0.00 72 1014.5
20260831173058 31 71 1.6 8.0 0.00 0.00 0.00 75 1014.7
20260831171545 31 192 0.0 6.4 0.00 0.00 0.00 77 1014.8
20260831170044 30 279 1.6 8.0 0.00 0.00 0.00 77 1015.0
20260831164542 31 154 1.6 12.9 0.00 0.00 0.00 77 1015.0
20260831163049 30 58 8.0 16.1 0.00 0.00 0.00 79 1014.9
20260831161541 31 51 3.2 12.9 0.00 0.00 0.00 78 1015.0
20260831160045 31 81 1.6 14.5 0.00 0.00 0.00 76 1015.0
20260831154537 30 81 3.2 11.3 0.00 0.00 0.00 81 1014.8
20260831153036 30 61 3.2 12.9 0.00 0.00 0.00 81 1014.9
20260831151534 30 351 0.0 8.0 0.00 0.00 0.00 81 1014.9
20260831150033 30 48 3.2 8.0 0.00 0.00 0.00 82 1014.9
20260831144542 28 33 1.6 6.4 0.00 0.00 0.00 84 1014.8
20260831143033 28 331 0.0 4.8 0.00 0.00 0.00 85 1014.6
20260831141522 27 344 0.0 6.4 0.00 0.00 0.00 87 1014.7
20260831140018 27 55 0.0 8.0 0.00 0.00 0.00 90 1014.7
20260831134514 26 340 0.0 4.8 0.00 0.00 0.00 91 1014.4
20260831133012 26 313 0.0 0.0 0.00 0.00 0.00 91 1014.2
20260831131510 26 313 0.0 0.0 0.00 0.00 0.00 91 1014.2
20260831130008 26 313 0.0 0.0 0.00 0.00 0.00 91 1013.9
20260831124510 26 313 0.0 0.0 0.00 0.00 0.00 91 1013.6
20260831123006 26 313 0.0 0.0 0.00 0.00 0.00 91 1013.5
20260831121507 26 313 1.6 4.8 0.00 0.00 0.00 91 1013.3
20260831120013 26 313 0.0 3.2 0.00 0.00 0.00 91 1013.4
20260831114504 26 313 0.0 0.0 0.00 0.00 0.00 91 1013.1